Location: Lindau
(47.4422°N, 8.6729°E)
Time: 17:17:44
(UTC+00:00)

Daily predictions for brighter satellites

Satellite Brightness Start Highest point End
(mag) Time Altitude Azimuth Time Altitude Azimuth Time Altitude Azimuth
Cosmos 304 Rocket 4.2 19:19:00 10° NNW 19:23:45 65° WSW 19:28:28 10° S
Cosmos 158 Rocket 4.3 19:19:58 10° SSW 19:25:11 77° WNW 19:30:34 10° NNE
SPOT 3 Rocket 4.3 19:20:32 10° SE 19:25:21 39° ENE 19:30:10 10° N
Meteor 2-19 Rocket 4.5 19:19:53 10° S 19:25:51 66° E 19:31:52 10° NNE
Cosmos 2151 3.0 19:23:48 10° S 19:28:03 80° E 19:32:22 10° NNE
Cosmos 1624 Rocket 4.4 19:23:44 10° NNW 19:28:47 48° ENE 19:33:51 10° SE
Cosmos 2084 3.3 19:26:19 10° SSW 19:30:20 75° SE 19:34:31 10° NE
Resurs 01 Rocket 2.0 19:28:53 10° SE 19:33:10 51° ENE 19:37:30 10° N
Gbstr 26 Del rocket 4.2 19:31:49 10° W 19:34:59 26° SW 19:38:15 10° SSE
Cosmos 1812 3.7 19:37:13 10° N 19:40:41 30° ENE 19:44:02 10° SE
Cosmos 1933 3.5 19:36:58 10° NNW 19:41:00 80° W 19:45:01 10° S
Cosmos 1689 Rocket 3.6 19:38:46 10° N 19:41:21 36° WNW 19:43:54 10° SW
Cosmos 1782 2.9 19:38:58 10° N 19:42:57 64° ENE 19:46:54 10° SSE
Landsat 7 4.0 19:38:56 10° SSE 19:43:36 60° ENE 19:48:18 10° N
ERS-1 Rocket 4.5 19:40:35 10° ESE 19:44:20 22° ENE 19:48:05 10° NNE
SL-27 R/B 2.9 19:45:05 10° S 19:48:28 40° ESE 19:51:53 10° NE
Cosmos 2333 Rocket 3.0 19:46:24 10° NNW 19:51:44 40° NE 19:56:33 12° ESE
BREEZE-M DEB (TANK) 2.9 19:49:55 10° W 19:52:42 46° SSW 19:58:28 12° SE
Cosmos 2237 Rocket 4.3 19:50:01 10° N 19:53:20 15° NE 19:56:39 10° ENE
Cosmos 2322 Rocket 2.5 19:48:16 10° NNW 19:53:52 70° WSW 19:59:25 10° SSE
Cosmos 2322 4.5 19:49:23 10° NNW 19:54:47 40° NE 19:59:33 13° ESE
SPOT 5 4.1 19:52:44 11° ESE 19:55:53 23° ENE 19:59:25 10° N
Cosmos 2195 Rocket 4.5 19:50:00 10° S 19:56:07 88° E 20:02:16 10° N
ARIANE 5 R/B 3.8 19:54:19 12° ESE 19:57:35 27° ENE 20:01:18 10° N
OBJECT-B 3.6 19:58:00 10° SW 20:00:12 17° W 20:02:24 10° NW
BREEZE-M R/B 4.0 19:56:04 10° SSW 20:00:12 21° SSE 20:02:47 11° E
BREEZE-M DEB (TANK) 4.2 20:01:56 10° W 20:05:16 48° SSW 20:12:58 14° SE
Cosmos 2219 Rocket 2.9 20:00:37 10° NNW 20:05:55 41° NE 20:10:11 15° ESE
Cosmos 2056 Rocket 3.6 20:05:20 10° NNW 20:10:42 82° WSW 20:15:29 12° SSE
ATLAS 5 CENTAUR R/B 2.9 20:06:53 10° NNW 20:12:01 45° NE 20:17:08 14° ESE
Meteor 2-14 Rocket 4.5 20:10:51 10° S 20:16:53 64° E 20:22:57 10° NNE
Spot 2 Rocket 3.8 20:14:03 16° SE 20:17:57 54° ENE 20:22:56 10° N
SPOT 1/Viking Rocket 3.5 20:14:27 13° SSE 20:19:11 84° ENE 20:24:27 10° NNW
USA 245 3.3 20:16:53 17° SSE 20:20:04 65° ENE 20:23:30 10° N
Cosmos 1408 Rocket 3.7 20:17:00 14° SSE 20:20:35 50° E 20:24:47 10° NNE
NOSS 2-1 (E) 3.4 20:19:21 10° SW 20:22:35 60° NW 20:26:02 10° NE
Cosmos 1655 Rocket 4.4 20:19:07 14° SSE 20:24:25 46° E 20:30:29 10° NNE
Cosmos 2026 Rocket 4.4 20:19:09 10° SSW 20:25:25 68° WNW 20:31:38 10° N
CZ-2C R/B 3.6 20:21:40 10° NNE 20:26:08 64° ESE 20:30:27 10° S
SL-16 R/B 3.8 20:22:13 10° NW 20:27:07 30° WSW 20:31:59 10° SSW
Cosmos 1743 Rocket 4.4 20:25:40 22° SE 20:27:45 33° E 20:31:43 10° NNE
GP-B 3.2 20:24:40 10° N 20:29:08 77° W 20:33:33 10° S
Cosmos 1151 Rocket 3.8 20:27:30 10° NNW 20:31:45 50° W 20:35:59 10° S
CARTOSAT-1 3.6 20:29:08 21° SSE 20:31:55 69° ENE 20:36:14 10° N
NOSS 3-1 (C) 4.1 20:26:57 10° NW 20:34:25 83° SW 20:40:55 20° SSE
Lacrosse 5 2.8 20:33:37 22° SSE 20:35:05 25° SE 20:39:11 10° ENE
Okean 3 Rocket 4.2 20:32:43 10° SSW 20:37:09 60° WNW 20:41:40 10° N
Cosmos 2333 4.2 20:32:30 10° NNW 20:38:08 88° WSW 20:41:51 22° SSE
ERS-2 3.9 20:37:42 10° N 20:41:00 32° WNW 20:44:16 10° SW
Meteor 1-10 Rocket 4.2 20:37:15 10° N 20:42:51 89° E 20:46:47 20° S
CZ-4C R/B 4.5 20:41:10 10° NNW 20:46:33 26° NNE 20:52:45 10° ENE
COSMOS 2487 2.3 20:45:40 32° S 20:46:58 59° ESE 20:50:20 10° NNE
Cosmos 1515 Rocket 3.6 20:44:41 10° NNW 20:49:07 79° W 20:51:44 24° S
COSMOS 2428 2.8 20:45:01 10° NNW 20:50:44 70° ENE 20:53:52 27° SE
USA 229 DEB 3.9 20:45:18 10° NW 20:52:38 85° NE 20:57:36 25° SE
USA 229 3.9 20:45:24 10° NW 20:52:44 85° NE 20:57:42 25° SE
COSMOS 2455 2.8 20:47:16 10° SSW 20:53:16 80° ESE 20:59:19 10° NE
Terra 2.0 20:54:31 30° SE 20:56:41 60° ENE 21:01:23 10° N
Cosmos 292 Rocket 4.5 20:52:24 10° NNW 20:57:00 48° WSW 20:59:58 21° S
Cosmos 2360 Rocket 3.4 20:55:23 10° NW 21:00:28 36° WSW 21:04:37 15° SSW
Cosmos 2084 Rocket 3.9 20:56:34 10° NW 21:00:40 53° NE 21:02:26 31° ESE
Cosmos 1048 Rocket 4.0 20:59:49 24° S 21:02:47 59° ESE 21:07:49 10° NNE
Cosmos 972 Rocket 3.8 21:01:59 19° S 21:05:40 73° ESE 21:10:36 10° NNE
Resurs 01 Rocket 4.0 21:06:48 10° SW 21:09:57 19° W 21:13:08 10° NW
NOSS 3-1 (A) 4.1 21:05:45 10° NW 21:13:15 79° SW 21:18:16 28° SSE
IRIDIUM 106 4.4 21:08:15 10° N 21:13:27 60° E 21:15:23 37° SSE
Cosmos 2266 Rocket 4.0 21:09:42 18° S 21:14:23 88° W 21:20:45 10° N
Cosmos 1707 Rocket 4.3 21:11:43 10° N 21:15:49 37° ENE 21:16:40 34° ESE
H-2A R/B 3.9 21:12:43 10° NNE 21:16:44 41° E 21:17:03 40° ESE
Okean 1 4.3 21:13:19 10° N 21:16:55 31° ENE 21:17:20 30° E
Cosmos 1980 4.3 21:11:37 10° NNW 21:17:06 47° NE 21:19:35 29° ESE
ERS-1 Rocket 3.3 21:20:14 29° S 21:22:43 59° W 21:27:42 10° NNW
Cosmos 2228 Rocket 3.1 21:21:04 10° N 21:25:31 81° W 21:26:53 44° S
Cosmos 2285 Rocket 4.1 21:23:49 10° NNW 21:30:05 68° WSW 21:33:03 32° S
Cosmos 2297 Rocket 2.9 21:31:26 33° ESE 21:31:48 34° ESE 21:36:49 10° NE
Cosmos 1805 Rocket 3.5 21:31:35 47° S 21:32:52 89° E 21:37:18 10° N
SPOT 5 3.5 21:31:58 29° SSW 21:33:43 43° W 21:38:02 10° NNW
ARIANE 5 R/B 3.8 21:31:52 23° SW 21:33:55 35° W 21:37:59 10° NNW
Cosmos 2315 Rocket 4.1 21:28:09 10° N 21:34:31 80° W 21:37:37 33° S
Cosmos 972 4.5 21:32:40 39° S 21:34:36 69° ESE 21:39:37 10° NNE
BREEZE-M DEB (TANK) 2.0 21:29:46 10° WNW 21:34:36 66° SW 21:34:36 66° SW
NOSS 0 Rocket 3.9 21:29:09 10° NNW 21:35:26 87° ENE 21:37:53 40° SSE
Cosmos 2333 Rocket 3.2 21:30:48 10° NW 21:35:59 38° WSW 21:38:33 25° SSW
Cosmos 2237 Rocket 2.4 21:32:56 10° NNW 21:38:36 63° ENE 21:40:34 40° ESE
USA 234 4.3 21:33:25 10° E 21:39:30 43° NNE 21:45:35 10° NW
Cosmos 1452 Rocket 4.4 21:37:31 10° NW 21:42:24 40° WSW 21:44:29 28° SSW
Meteor 1-20 Rocket 4.1 21:40:22 39° S 21:42:37 82° E 21:48:24 10° NNE
Cosmos 2227 Rocket 3.0 21:44:50 32° ESE 21:44:50 32° ESE 21:49:46 10° NE
NOSS 2-2 (E) 4.4 21:41:01 10° NW 21:46:21 83° NE 21:49:13 38° SE
ALOS 2 4.2 21:45:45 22° E 21:46:31 23° ENE 21:49:57 10° NNE
Cosmos 2219 Rocket 3.2 21:44:44 10° NW 21:49:47 36° WSW 21:51:54 27° SSW
USA 40 PKM 4.1 21:46:49 10° NW 21:50:28 85° NE 21:50:40 78° ESE
Sich 1 3.1 21:53:27 53° SW 21:54:20 70° W 21:58:40 10° N
ATLAS 5 CENTAUR R/B 2.9 21:51:24 10° NW 21:56:48 46° WSW 21:58:38 36° SSW
Cosmos 1515 3.8 21:53:41 10° NNW 21:57:27 65° W 21:57:27 65° W
Cosmos 1331 Rocket 4.2 21:53:14 10° NNW 21:58:23 60° WSW 21:59:36 47° SSW
BREEZE-M DEB (TANK) 4.5 21:43:12 10° WSW 21:58:40 60° SSE 22:02:12 20° E
Cosmos 1110 Rocket 4.4 21:54:37 10° NNW 21:59:48 53° WSW 22:01:08 42° SSW
Nadezhda 1 Rocket 4.3 21:58:33 10° N 22:04:50 54° ENE 22:06:40 41° SE
Cosmos 1633 Rocket 2.9 22:10:51 83° ESE 22:10:55 83° E 22:15:17 10° N
SL-16 R/B 3.0 22:05:38 10° NNW 22:11:03 43° NE 22:12:56 33° E
NOSS 2-2 (C) 4.3 22:07:04 10° NW 22:12:23 83° SW 22:14:24 48° SSE
Cosmos 1470 Rocket 3.9 22:14:08 49° ENE 22:14:08 49° ENE 22:17:57 10° NNE
Cosmos 1666 3.7 22:15:50 39° NE 22:15:50 39° NE 22:18:39 10° NNE
Lacrosse 5 1.9 22:12:33 10° WSW 22:17:39 76° NW 22:22:44 10° NE
Cosmos 1933 Rocket 4.4 22:20:15 38° ENE 22:20:15 38° ENE 22:23:55 10° NNE
Cosmos 1666 Rocket 3.8 22:21:09 59° WSW 22:21:38 64° WNW 22:26:05 10° N
SL-08 ROCKET BODY 4.4 22:21:32 48° SSW 22:23:25 84° W 22:29:39 10° N
Cosmos 1340 Rocket 3.8 22:28:39 37° NE 22:28:39 37° NE 22:31:29 10° NNE
COSMOS 2428 4.4 22:30:22 10° NW 22:34:24 20° W 22:35:52 18° WSW
Terra 3.8 22:33:24 16° WSW 22:34:50 18° W 22:38:04 10° NW
CZ-4C R/B 3.3 22:29:33 10° NW 22:36:30 60° NE 22:41:11 27° ESE
COBE Rocket 4.1 22:36:50 53° WSW 22:37:07 54° W 22:41:48 10° NNW
Meteor 2-4 Rocket 3.8 22:33:46 10° NNW 22:39:41 76° W 22:40:46 59° SSW
Timation 2 Rocket 3.8 22:39:27 59° SSE 22:40:10 63° ESE 22:46:17 10° NE
CZ-3B R/B 2.9 22:33:53 10° WNW 22:39:48 42° WSW 22:39:48 42° WSW
Cosmos 1992 Rocket 3.9 22:37:28 10° NNW 22:42:44 76° ENE 22:43:15 68° ESE
Cosmos 2242 Rocket 3.8 22:40:24 10° N 22:44:34 60° ENE 22:44:34 60° ENE
Cosmos 1862 Rocket 4.2 22:41:17 10° NNW 22:45:19 46° W 22:45:19 46° W
USA 267 3.3 22:41:09 10° ENE 22:47:33 54° SE 22:48:10 52° SSE
Cosmos 2219 3.2 22:48:17 53° SW 22:49:41 79° WNW 22:55:29 10° NNE
Meteor 1-5 Rocket 4.2 22:49:37 60° SSW 22:50:44 84° WNW 22:56:43 10° N
Spot 4 4.2 22:52:09 53° WSW 22:52:18 53° W 22:57:04 10° NNW
Cosmos 1066 Rocket 4.4 22:48:37 10° N 22:54:27 63° ENE 22:55:26 54° ESE
Cosmos 2082 3.7 23:01:12 64° SE 23:01:29 65° ESE 23:07:10 10° NNE
Cosmos 1703 Rocket 3.7 22:57:21 10° N 23:01:20 73° NNW 23:01:20 73° NNW
Cosmos 1378 4.1 23:01:19 10° NNW 23:03:58 45° NNW 23:03:58 45° NNW
Cosmos 909 Rocket 4.2 23:02:47 45° SW 23:05:09 89° NW 23:13:08 10° NE
Meteor 1-11 Rocket 3.6 23:05:19 65° ESE 23:05:42 67° E 23:11:13 10° NNE
Okean 1-7 3.3 23:05:52 10° NNW 23:09:33 62° NW 23:09:33 62° NW
Cosmos 2181 Rocket 4.1 23:05:13 10° N 23:11:29 64° ENE 23:12:46 52° SE
Cosmos 2297 Rocket 3.1 23:13:12 28° WSW 23:15:42 44° NW 23:21:09 10° NNE
Nimbus 7 Rocket 4.3 23:11:59 10° NNE 23:18:00 79° ESE 23:18:52 65° S
Meteor 1-23 Rocket 4.3 23:14:57 10° N 23:20:42 68° ENE 23:21:35 59° SE
USA 234 3.3 23:18:04 26° ESE 23:22:03 77° NNE 23:28:37 10° NW
Cosmos 2237 Rocket 3.7 23:17:50 10° NW 23:22:11 23° WSW 23:22:23 23° WSW
ALOS 2 3.5 23:23:09 40° WNW 23:23:09 40° WNW 23:26:48 10° NNW
Cosmos 614 Rocket 3.9 23:23:41 70° ESE 23:23:41 70° ESE 23:28:53 10° NNE
Cosmos 1461 3.3 23:27:18 66° NNE 23:27:18 66° NNE 23:31:07 10° NE
Cosmos 1709 Rocket 4.0 23:26:19 57° SSW 23:27:40 76° W 23:34:05 10° N
Meteor 1-13 Rocket 4.3 23:22:41 10° NNW 23:28:19 63° W 23:28:50 60° WSW
Cosmos 2227 Rocket 3.0 23:26:37 33° WSW 23:28:40 46° NW 23:34:09 10° NNE
SL-24 R/B - RUBIN 2 4.2 23:27:03 10° NNW 23:32:06 57° NE 23:32:44 52° E
Cosmos 2263 Rocket 2.7 23:33:28 44° ESE 23:33:31 44° ESE 23:38:54 10° NE
Cosmos 2344 4.0 23:34:41 38° SE 23:35:41 40° ESE 23:42:41 10° NE
Cosmos 1603 4.2 23:34:17 10° NNW 23:39:48 53° ENE 23:41:31 39° ESE
Cosmos 1536 3.6 23:40:44 49° NW 23:40:44 49° NW 23:44:02 10° N
PSLV R/B 3.8 23:38:01 10° NNE 23:42:34 72° ENE 23:42:34 72° ENE
Cosmos 1842 4.3 23:41:07 10° N 23:44:12 40° NE 23:44:12 40° NE
Okean 3 4.2 23:42:23 10° NNW 23:45:46 45° WNW 23:45:46 45° WNW
Cosmos 1869 Rocket 3.9 23:47:06 58° WNW 23:47:06 58° WNW 23:51:13 10° N
ASTEX 1 3.9 23:46:47 48° E 23:47:15 49° ENE 23:52:01 10° N
Cosmos 44 3.8 23:46:59 10° NW 23:51:25 52° W 23:51:25 52° W
Thor Agena Rocket 3.3 23:47:15 10° NNE 23:52:20 85° WNW 23:52:34 80° SW
